Starlink 32482

operational
NORAD ID: 62141 Int'l Des: 2024-224 Owner: SPXS Country: US Constellation: starlink
LEOCIRCULAR

Starlink 32482について

説明を読み込み中...

リアルタイム位置

3D地球を読み込み中...

次回通過

高度履歴

Altitude vs Time

uPlot chart will show altitude changes over time

軌道要素

1 62141U 24224C 25258.20164469 .00063041 00000-0 22768-2 0 9993
2 62141 43.0046 68.9748 0003393 268.4828 91.5635 15.27634901 45489
Epoch: Sep 15, 2025 • Age: 20 hours

現在のステータス

高度 487.7 km
速度 7.62 km/s
衛星直下点 -26.63°S, 20.75°E
打ち上げ日 Nov 30, 2024
運用期間 0.7 years
タイプ internet

技術仕様

分類 Payload
質量 730.00 kg
乾燥質量 700.00 kg
総質量 730.00 kg
長さ 0.30 m
直径 4.10 m
スパン 29.00 m
形状 Box + pan
製造者 SPXS
バスタイプ Starlink V2M
フェーズステータス In Orbit
所有者/国 SPXS/US

大規模コンステレーション

Loading constellations...